Location: Splawn
(30.9202°N, 96.9858°W)
Time: 21:15:41
(UTC+00:00)

deb Explorer IX - Visible Passes

Search period start: 17 February 2020 00:00
Search period end: 27 February 2020 00:00
Orbit: 549 x 1099 km, 38.8° (Epoch: 17 February)

Date Brightness Start Highest point End Pass type
(mag) Time Alt. Az. Time Alt. Az. Time Alt. Az.
17 Feb ? 01:06:16 10° WNW 01:11:07 44° SSW 01:16:47 10° SE visible
18 Feb ? 00:44:04 10° WNW 00:48:46 42° SSW 00:54:13 10° SE visible
26 Feb ? 12:29:26 10° S 12:32:54 16° SE 12:36:07 10° ESE visible
